EZY298K EGKK-EGAC

Flight info

Callsign EZY298K
Flight time 0h 59m
Altitude 38000
Route LAM L10 BPK UN601 LESTA UP6 RODOL UM65 TENSO L603 BELOX DCT REMSI DCT NINEB M148 MAGEE
Aircraft A20N/M-SDE2E3FGHIJ1RWXYZ/LB1

Departure

Time 2026-04-18 10:14
Airport London Gatwick Airport (EGKK)

Arrival

Time 2026-04-18 11:13
Airport George Best Belfast City Airport (EGAC)
Time Latitude Longitude Altitude Speed Heading
2026-04-18 09:37 51.15769 -0.17937 204 ft 0 kts 32°
2026-04-18 09:59 51.15763 -0.17943 217 ft 1 kts 32°
2026-04-18 09:59 51.15756 -0.17950 217 ft 1 kts 34°
2026-04-18 10:00 51.15741 -0.17968 217 ft 1 kts 39°
2026-04-18 10:00 51.15734 -0.17977 217 ft 1 kts 49°
2026-04-18 10:00 51.15729 -0.17988 211 ft 1 kts 66°
2026-04-18 10:00 51.15726 -0.18002 208 ft 1 kts 86°
2026-04-18 10:01 51.15726 -0.18016 206 ft 1 kts 107°
2026-04-18 10:01 51.15729 -0.18029 207 ft 1 kts 134°
2026-04-18 10:01 51.15735 -0.18037 213 ft 0 kts 164°
2026-04-18 10:03 51.15734 -0.18037 208 ft 1 kts 164°
2026-04-18 10:03 51.15710 -0.18036 204 ft 6 kts 193°
2026-04-18 10:04 51.15677 -0.18097 212 ft 9 kts 251°
2026-04-18 10:04 51.15658 -0.18209 209 ft 12 kts 259°
2026-04-18 10:04 51.15631 -0.18336 208 ft 13 kts 225°
2026-04-18 10:04 51.15565 -0.18333 206 ft 11 kts 171°
2026-04-18 10:05 51.15482 -0.18309 210 ft 14 kts 163°
2026-04-18 10:05 51.15378 -0.18264 206 ft 17 kts 168°
2026-04-18 10:05 51.15253 -0.18226 208 ft 17 kts 169°
2026-04-18 10:05 51.15150 -0.18189 203 ft 14 kts 168°
2026-04-18 10:06 51.15124 -0.18082 205 ft 11 kts 80°
2026-04-18 10:06 51.15144 -0.17944 209 ft 15 kts 77°
2026-04-18 10:06 51.15168 -0.17769 208 ft 18 kts 77°
2026-04-18 10:06 51.15184 -0.17664 209 ft 0 kts 77°
2026-04-18 10:07 51.15185 -0.17655 205 ft 4 kts 77°
2026-04-18 10:07 51.15199 -0.17544 204 ft 13 kts 78°
2026-04-18 10:07 51.15218 -0.17392 211 ft 17 kts 78°
2026-04-18 10:07 51.15247 -0.17197 208 ft 19 kts 76°
2026-04-18 10:08 51.15282 -0.16975 207 ft 22 kts 75°
2026-04-18 10:08 51.15274 -0.16828 210 ft 0 kts 145°
2026-04-18 10:09 51.15262 -0.16818 213 ft 6 kts 154°
2026-04-18 10:09 51.15239 -0.16806 212 ft 0 kts 162°
2026-04-18 10:10 51.15233 -0.16802 209 ft 0 kts 162°
2026-04-18 10:12 51.15221 -0.16797 210 ft 5 kts 165°
2026-04-18 10:12 51.15154 -0.16787 203 ft 14 kts 191°
2026-04-18 10:12 51.15103 -0.16910 207 ft 14 kts 260°
2026-04-18 10:12 51.15084 -0.17046 211 ft 13 kts 257°
2026-04-18 10:13 51.15065 -0.17183 204 ft 3 kts 257°
2026-04-18 10:13 51.15050 -0.17290 209 ft 39 kts 258°
2026-04-18 10:13 51.14947 -0.18076 208 ft 104 kts 257°
2026-04-18 10:13 51.14760 -0.19482 209 ft 152 kts 259°
2026-04-18 10:14 51.14496 -0.21259 744 ft 169 kts 259°
2026-04-18 10:14 51.14244 -0.23030 1845 ft 162 kts 259°
2026-04-18 10:14 51.13998 -0.24810 2721 ft 172 kts 259°
2026-04-18 10:14 51.13735 -0.26764 3464 ft 190 kts 259°
2026-04-18 10:15 51.13653 -0.29008 3896 ft 223 kts 282°
2026-04-18 10:15 51.14415 -0.31455 4001 ft 275 kts 309°
2026-04-18 10:15 51.15489 -0.32861 4251 ft 289 kts 329°
2026-04-18 10:15 51.16838 -0.33677 4433 ft 271 kts 347°
2026-04-18 10:16 51.18653 -0.33512 4464 ft 256 kts 17°
2026-04-18 10:16 51.20124 -0.31999 4458 ft 256 kts 47°
2026-04-18 10:16 51.20933 -0.29464 4635 ft 263 kts 80°
2026-04-18 10:16 51.20951 -0.26663 5050 ft 280 kts 98°
2026-04-18 10:17 51.20746 -0.23553 6073 ft 283 kts 94°
2026-04-18 10:17 51.20737 -0.20387 6981 ft 291 kts 88°
2026-04-18 10:17 51.20950 -0.17167 7918 ft 295 kts 82°
2026-04-18 10:17 51.21304 -0.13886 8821 ft 302 kts 80°
2026-04-18 10:18 51.21722 -0.10564 9766 ft 307 kts 79°
2026-04-18 10:18 51.22161 -0.07192 10633 ft 314 kts 79°
2026-04-18 10:18 51.22606 -0.03763 11452 ft 320 kts 79°
2026-04-18 10:18 51.23055 -0.00246 12297 ft 325 kts 80°
2026-04-18 10:19 51.23514 0.03321 13111 ft 332 kts 77°
2026-04-18 10:19 51.24466 0.06704 13908 ft 338 kts 53°
2026-04-18 10:19 51.26177 0.09324 14635 ft 338 kts 28°
2026-04-18 10:19 51.28331 0.10690 15360 ft 331 kts
2026-04-18 10:20 51.30579 0.10663 16076 ft 322 kts 342°
2026-04-18 10:20 51.32790 0.09923 16806 ft 325 kts 341°
2026-04-18 10:20 51.34963 0.09174 17556 ft 329 kts 341°
2026-04-18 10:20 51.37193 0.08410 18287 ft 333 kts 341°
2026-04-18 10:21 51.39499 0.07622 18917 ft 338 kts 341°
2026-04-18 10:21 51.41807 0.06835 19148 ft 339 kts 341°
2026-04-18 10:21 51.44106 0.06054 19229 ft 339 kts 341°
2026-04-18 10:21 51.46415 0.05270 19240 ft 340 kts 341°
2026-04-18 10:22 51.48696 0.04337 19240 ft 334 kts 334°
2026-04-18 10:22 51.50897 0.03091 19399 ft 337 kts 333°
2026-04-18 10:22 51.53112 0.01810 20063 ft 338 kts 333°
2026-04-18 10:22 51.55327 0.00534 20755 ft 340 kts 333°
2026-04-18 10:23 51.57567 -0.00749 21376 ft 344 kts 333°
2026-04-18 10:23 51.59821 -0.02034 21987 ft 347 kts 333°
2026-04-18 10:23 51.62118 -0.03341 22605 ft 350 kts 333°
2026-04-18 10:23 51.64415 -0.04647 23241 ft 353 kts 333°
2026-04-18 10:24 51.66741 -0.05971 23753 ft 357 kts 333°
2026-04-18 10:24 51.69091 -0.07309 24260 ft 359 kts 332°
2026-04-18 10:24 51.71365 -0.08606 24768 ft 361 kts 332°
2026-04-18 10:24 51.73152 -0.09625 25151 ft 363 kts 332°
2026-04-18 10:25 51.75478 -0.11178 25637 ft 359 kts 324°
2026-04-18 10:25 51.77631 -0.13181 26106 ft 357 kts 321°
2026-04-18 10:25 51.79815 -0.15286 26472 ft 365 kts 321°
2026-04-18 10:25 51.82039 -0.17413 26605 ft 378 kts 321°
2026-04-18 10:26 51.84339 -0.19606 26763 ft 391 kts 322°
2026-04-18 10:26 51.86720 -0.21875 26885 ft 403 kts 322°
2026-04-18 10:26 51.89164 -0.24206 27007 ft 414 kts 322°
2026-04-18 10:26 51.91682 -0.26612 27122 ft 425 kts 322°
2026-04-18 10:27 51.94262 -0.29081 27223 ft 436 kts 322°
2026-04-18 10:27 51.96896 -0.31605 27343 ft 445 kts 322°
2026-04-18 10:27 51.99594 -0.34194 27449 ft 454 kts 322°
2026-04-18 10:27 52.02331 -0.36825 27549 ft 463 kts 322°
2026-04-18 10:28 52.05120 -0.39510 27635 ft 470 kts 322°
2026-04-18 10:28 52.07982 -0.42267 27854 ft 472 kts 322°
2026-04-18 10:28 52.10809 -0.44990 28184 ft 471 kts 322°
2026-04-18 10:28 52.13592 -0.47674 28530 ft 470 kts 322°
2026-04-18 10:29 52.16434 -0.50422 28869 ft 469 kts 322°
2026-04-18 10:29 52.19245 -0.53145 29187 ft 469 kts 322°
2026-04-18 10:29 52.22040 -0.55860 29506 ft 468 kts 322°
2026-04-18 10:29 52.24785 -0.58531 29829 ft 467 kts 322°
2026-04-18 10:30 52.27577 -0.61256 30150 ft 467 kts 322°
2026-04-18 10:30 52.30326 -0.63943 30447 ft 466 kts 322°
2026-04-18 10:30 52.33107 -0.66666 30736 ft 466 kts 322°
2026-04-18 10:30 52.35837 -0.69343 31037 ft 466 kts 322°
2026-04-18 10:31 52.38647 -0.72100 31329 ft 465 kts 322°
2026-04-18 10:31 52.41427 -0.74828 31624 ft 465 kts 322°
2026-04-18 10:31 52.44147 -0.77500 31925 ft 465 kts 321°
2026-04-18 10:31 52.46646 -0.79958 32195 ft 464 kts 321°
2026-04-18 10:32 52.49424 -0.82695 32475 ft 464 kts 321°
2026-04-18 10:32 52.52164 -0.85399 32756 ft 464 kts 321°
2026-04-18 10:32 52.54947 -0.88150 33053 ft 463 kts 321°
2026-04-18 10:32 52.57709 -0.90885 33332 ft 463 kts 321°
2026-04-18 10:33 52.60469 -0.93621 33597 ft 463 kts 321°
2026-04-18 10:33 52.63226 -0.96358 33911 ft 462 kts 321°
2026-04-18 10:33 52.65974 -0.99092 34180 ft 462 kts 321°
2026-04-18 10:33 52.68619 -1.01728 34400 ft 462 kts 321°
2026-04-18 10:34 52.71256 -1.04359 34569 ft 462 kts 321°
2026-04-18 10:34 52.73899 -1.07299 34764 ft 455 kts 315°
2026-04-18 10:34 52.76296 -1.10651 34959 ft 450 kts 309°
2026-04-18 10:34 52.78556 -1.14238 35138 ft 450 kts 309°
2026-04-18 10:35 52.80832 -1.17801 35324 ft 450 kts 309°
2026-04-18 10:35 52.83111 -1.21357 35509 ft 451 kts 309°
2026-04-18 10:35 52.85390 -1.24922 35684 ft 451 kts 309°
2026-04-18 10:35 52.87660 -1.28488 35852 ft 451 kts 309°
2026-04-18 10:36 52.89935 -1.32073 36015 ft 451 kts 309°
2026-04-18 10:36 52.92204 -1.35655 36178 ft 452 kts 309°
2026-04-18 10:36 52.94466 -1.39234 36347 ft 452 kts 309°
2026-04-18 10:36 52.96750 -1.42854 36483 ft 452 kts 309°
2026-04-18 10:37 52.99027 -1.46467 36634 ft 453 kts 309°
2026-04-18 10:37 53.01279 -1.50046 36777 ft 453 kts 309°
2026-04-18 10:37 53.03365 -1.53366 36906 ft 453 kts 309°
2026-04-18 10:37 53.05628 -1.56974 37061 ft 454 kts 309°
2026-04-18 10:38 53.07927 -1.60643 37181 ft 454 kts 309°
2026-04-18 10:38 53.10201 -1.64279 37320 ft 454 kts 309°
2026-04-18 10:38 53.12483 -1.67940 37442 ft 455 kts 309°
2026-04-18 10:38 53.14753 -1.71585 37575 ft 455 kts 309°
2026-04-18 10:39 53.17025 -1.75241 37708 ft 455 kts 309°
2026-04-18 10:39 53.19311 -1.78923 37829 ft 455 kts 309°
2026-04-18 10:39 53.21610 -1.82574 37934 ft 458 kts 312°
2026-04-18 10:39 53.24002 -1.85823 38061 ft 463 kts 317°
2026-04-18 10:40 53.26686 -1.88844 38156 ft 468 kts 322°
2026-04-18 10:40 53.32368 -1.94236 38202 ft 469 kts 324°
2026-04-18 10:41 53.37827 -1.99455 38212 ft 469 kts 324°
2026-04-18 10:41 53.43515 -2.04888 38206 ft 470 kts 324°
2026-04-18 10:42 53.49188 -2.10311 38199 ft 470 kts 324°
2026-04-18 10:42 53.54866 -2.15785 38195 ft 468 kts 321°
2026-04-18 10:43 53.58911 -2.21543 38189 ft 455 kts 305°
2026-04-18 10:43 53.62197 -2.30161 38190 ft 441 kts 287°
2026-04-18 10:44 53.64410 -2.39781 38181 ft 439 kts 286°
2026-04-18 10:44 53.66617 -2.49363 38186 ft 438 kts 285°
2026-04-18 10:45 53.68807 -2.58966 38184 ft 439 kts 285°
2026-04-18 10:45 53.70986 -2.68588 38186 ft 439 kts 285°
2026-04-18 10:46 53.73150 -2.78197 38180 ft 439 kts 285°
2026-04-18 10:46 53.75313 -2.87839 38184 ft 438 kts 285°
2026-04-18 10:47 53.77467 -2.97490 38176 ft 439 kts 285°
2026-04-18 10:47 53.79606 -3.07119 38186 ft 439 kts 285°
2026-04-18 10:48 53.81948 -3.17707 38186 ft 440 kts 284°
2026-04-18 10:48 53.83916 -3.26648 38187 ft 440 kts 284°
2026-04-18 10:49 53.86047 -3.36369 38174 ft 440 kts 284°
2026-04-18 10:49 53.87109 -3.41225 37967 ft 436 kts 284°
2026-04-18 10:49 53.88161 -3.46045 37378 ft 436 kts 284°
2026-04-18 10:49 53.89206 -3.50844 36686 ft 435 kts 283°
2026-04-18 10:50 53.90252 -3.55653 35971 ft 433 kts 283°
2026-04-18 10:50 53.91289 -3.60434 35253 ft 431 kts 282°
2026-04-18 10:50 53.92315 -3.65180 34540 ft 430 kts 282°
2026-04-18 10:50 53.93342 -3.69935 33779 ft 428 kts 281°
2026-04-18 10:51 53.94367 -3.74715 32821 ft 430 kts 281°
2026-04-18 10:51 53.95396 -3.79445 32329 ft 424 kts 283°
2026-04-18 10:51 53.96643 -3.83978 31801 ft 425 kts 289°
2026-04-18 10:51 53.98176 -3.88300 31026 ft 431 kts 294°
2026-04-18 10:52 53.99798 -3.92613 30161 ft 433 kts 294°
2026-04-18 10:52 54.01417 -3.96965 29124 ft 436 kts 294°
2026-04-18 10:52 54.03025 -4.01299 28367 ft 433 kts 294°
2026-04-18 10:52 54.04574 -4.05472 27764 ft 427 kts 294°
2026-04-18 10:53 54.06093 -4.09572 27181 ft 422 kts 294°
2026-04-18 10:53 54.07653 -4.13794 26592 ft 417 kts 294°
2026-04-18 10:53 54.09190 -4.17964 26016 ft 412 kts 294°
2026-04-18 10:53 54.10700 -4.22069 25450 ft 408 kts 294°
2026-04-18 10:54 54.12199 -4.26153 24898 ft 404 kts 294°
2026-04-18 10:54 54.13681 -4.30196 24348 ft 400 kts 294°
2026-04-18 10:54 54.15144 -4.34194 23815 ft 396 kts 295°
2026-04-18 10:54 54.16595 -4.38176 23194 ft 393 kts 294°
2026-04-18 10:55 54.18012 -4.42130 22564 ft 389 kts 294°
2026-04-18 10:55 54.18933 -4.44715 22159 ft 388 kts 294°
2026-04-18 10:55 54.20729 -4.49761 21427 ft 383 kts 294°
2026-04-18 10:55 54.22105 -4.53627 20888 ft 379 kts 294°
2026-04-18 10:56 54.23471 -4.57465 20359 ft 376 kts 294°
2026-04-18 10:56 54.24819 -4.61261 19837 ft 372 kts 294°
2026-04-18 10:56 54.26155 -4.65026 19325 ft 368 kts 294°
2026-04-18 10:56 54.27479 -4.68760 18825 ft 365 kts 294°
2026-04-18 10:57 54.28787 -4.72451 18307 ft 362 kts 294°
2026-04-18 10:57 54.30084 -4.76118 17742 ft 359 kts 294°
2026-04-18 10:57 54.31372 -4.79766 17185 ft 356 kts 294°
2026-04-18 10:57 54.32641 -4.83367 16646 ft 354 kts 294°
2026-04-18 10:58 54.33910 -4.86972 16103 ft 351 kts 294°
2026-04-18 10:58 54.34743 -4.89341 15757 ft 349 kts 293°
2026-04-18 10:58 54.36060 -4.93095 15209 ft 347 kts 293°
2026-04-18 10:58 54.37299 -4.96631 14696 ft 345 kts 293°
2026-04-18 10:59 54.38512 -5.00096 14197 ft 343 kts 293°
2026-04-18 10:59 54.39754 -5.03650 13652 ft 341 kts 293°
2026-04-18 10:59 54.40951 -5.07084 13106 ft 339 kts 293°
2026-04-18 10:59 54.42156 -5.10542 12555 ft 337 kts 294°
2026-04-18 11:00 54.43299 -5.13829 12048 ft 335 kts 294°
2026-04-18 11:00 54.44496 -5.17272 11508 ft 333 kts 294°
2026-04-18 11:00 54.45680 -5.20685 10992 ft 332 kts 294°
2026-04-18 11:00 54.46856 -5.24081 10471 ft 330 kts 294°
2026-04-18 11:01 54.48036 -5.27478 9961 ft 328 kts 296°
2026-04-18 11:01 54.49498 -5.30486 9391 ft 335 kts 312°
2026-04-18 11:01 54.51416 -5.32788 8844 ft 339 kts 325°
2026-04-18 11:02 54.55473 -5.36805 7757 ft 329 kts 324°
2026-04-18 11:02 54.57421 -5.38753 7224 ft 319 kts 324°
2026-04-18 11:02 54.59304 -5.40647 6715 ft 310 kts 324°
2026-04-18 11:02 54.61146 -5.42506 6165 ft 303 kts 324°
2026-04-18 11:03 54.62945 -5.44329 5625 ft 296 kts 324°
2026-04-18 11:03 54.64722 -5.46135 5081 ft 290 kts 324°
2026-04-18 11:03 54.66441 -5.47880 4544 ft 285 kts 324°
2026-04-18 11:03 54.68116 -5.49579 4001 ft 281 kts 323°
2026-04-18 11:04 54.69656 -5.51143 3511 ft 278 kts 323°
2026-04-18 11:04 54.71312 -5.52827 2961 ft 275 kts 323°
2026-04-18 11:04 54.72955 -5.54502 2427 ft 273 kts 324°
2026-04-18 11:04 54.74554 -5.56129 2122 ft 259 kts 324°
2026-04-18 11:05 54.76017 -5.57603 2031 ft 224 kts 323°
2026-04-18 11:05 54.77253 -5.58839 2036 ft 188 kts 322°
2026-04-18 11:05 54.78203 -5.59786 2045 ft 158 kts 321°
2026-04-18 11:05 54.79007 -5.60813 2044 ft 134 kts 295°
2026-04-18 11:06 54.79282 -5.62238 2048 ft 120 kts 264°
2026-04-18 11:06 54.79365 -5.63685 2046 ft 122 kts 266°
2026-04-18 11:06 54.79442 -5.65148 2042 ft 118 kts 255°
2026-04-18 11:06 54.79136 -5.66379 2045 ft 110 kts 223°
2026-04-18 11:07 54.78592 -5.67077 2043 ft 108 kts 210°
2026-04-18 11:07 54.77976 -5.67767 2043 ft 108 kts 212°
2026-04-18 11:07 54.77360 -5.68503 2046 ft 108 kts 212°
2026-04-18 11:07 54.76748 -5.69242 2039 ft 106 kts 213°
2026-04-18 11:08 54.76137 -5.69999 2026 ft 108 kts 213°
2026-04-18 11:08 54.75519 -5.70754 2063 ft 111 kts 213°
2026-04-18 11:08 54.74912 -5.71494 2035 ft 104 kts 214°
2026-04-18 11:08 54.74295 -5.72240 2103 ft 116 kts 213°
2026-04-18 11:09 54.73645 -5.73020 2035 ft 109 kts 214°
2026-04-18 11:09 54.73035 -5.73757 2051 ft 108 kts 214°
2026-04-18 11:09 54.72416 -5.74504 2053 ft 110 kts 213°
2026-04-18 11:09 54.71790 -5.75258 2055 ft 108 kts 213°
2026-04-18 11:10 54.71169 -5.76005 2043 ft 110 kts 213°
2026-04-18 11:10 54.70541 -5.76762 2050 ft 109 kts 214°
2026-04-18 11:10 54.69921 -5.77509 2054 ft 108 kts 214°
2026-04-18 11:10 54.69304 -5.78250 2052 ft 109 kts 214°
2026-04-18 11:11 54.68725 -5.78950 1920 ft 110 kts 214°
2026-04-18 11:11 54.68105 -5.79710 1733 ft 109 kts 214°
2026-04-18 11:11 54.67490 -5.80456 1529 ft 107 kts 214°
2026-04-18 11:11 54.66938 -5.81100 1311 ft 108 kts 213°
2026-04-18 11:12 54.66301 -5.81833 1115 ft 111 kts 215°
2026-04-18 11:12 54.65653 -5.82657 876 ft 119 kts 218°
2026-04-18 11:12 54.64965 -5.83477 687 ft 124 kts 217°
2026-04-18 11:12 54.64241 -5.84330 481 ft 128 kts 218°
2026-04-18 11:13 54.63538 -5.85197 290 ft 124 kts 219°
2026-04-18 11:13 54.62823 -5.86051 108 ft 122 kts 218°
2026-04-18 11:13 54.62123 -5.86877 25 ft 121 kts 218°
2026-04-18 11:13 54.61762 -5.87312 23 ft 17 kts 212°
2026-04-18 11:14 54.61641 -5.87455 20 ft 25 kts 216°
2026-04-18 11:14 54.61482 -5.87621 20 ft 28 kts 204°
2026-04-18 11:14 54.61400 -5.87565 21 ft 10 kts 122°
2026-04-18 11:14 54.61388 -5.87442 21 ft 11 kts 57°
2026-04-18 11:15 54.61400 -5.87339 21 ft 0 kts 111°
2026-04-18 11:15 54.61399 -5.87335 21 ft 2 kts 115°
2026-04-18 11:15 54.61388 -5.87304 21 ft 1 kts 121°